[[{"header":{"parameterUnit":"m.s-1","parameterCategory":1,"la1":30.2991,"la2":30.254,"lo1":-89.0895,"lo2":-89.0444,"dy":0.0017,"dx":0.0017,"nx":28,"ny":28,"refTime":"2024-04-07T03:00:00:Z","depth":0,"parameterNumber":2,"parameterNumberName":"U-component_of_WINDS"},"data":[0,0,0,0,0,0,0,0,0,0,0,0,0,0,0,0,0,0,0,0,0,0,0,0,0,0,0,0,0,0,0,0,0,0,0,0,0,0,0,0,0,0,0,0,0,0,0,0,0,0,0,0,0,0,0,0,0,0,-3.0329,-3.033,0,-3.0393,-3.0394,-3.0395,-3.0361,-3.0359,-3.0358,-3.0356,-3.0421,-3.0424,-3.0427,0,0,0,0,0,0,0,0,0,0,0,0,0,-3.0176,-3.0179,-3.0329,-3.033,-3.033,-3.0393,-3.0394,-3.0395,-3.0361,-3.0359,-3.0357,-3.0355,-3.042,-3.0423,-3.0427,0,0,0,0,0,0,0,0,0,0,0,0,0,-3.0242,-3.018,-3.0329,-3.0321,-3.0321,-3.0393,-3.0394,-3.0395,-3.0362,-3.0359,-3.0357,-3.0354,-3.0418,-3.0423,-3.0428,-3.051,0,0,-3.0443,-3.0445,0,0,0,0,0,0,0,0,-3.0238,-3.0247,-3.0322,-3.0322,-3.0322,-3.0366,-3.0364,-3.0434,-3.0362,-3.0346,-3.0356,-3.0353,-3.0405,-3.0411,-3.0428,-3.0513,-3.0516,-3.0444,-3.0447,-3.0449,-3.045,0,0,0,0,0,0,0,-3.0233,-3.0244,-3.0354,-3.0323,-3.0323,-3.0314,-3.0321,-3.0377,-3.0389,-3.0348,-3.0345,-3.0353,-3.0404,-3.0423,-3.0429,-3.0517,-3.0443,-3.0448,-3.0451,-3.0453,-3.0671,-3.0674,0,0,0,0,0,0,-3.0229,-3.0241,-3.0352,-3.0356,-3.0273,-3.0319,-3.0327,-3.0355,-3.0388,-3.0391,-3.0356,-3.0352,-3.0416,-3.0424,-3.0432,-3.0529,-3.0449,-3.0453,-3.0456,-3.0669,-3.0672,-3.0675,0,0,0,0,0,0,-3.0226,-3.024,-3.035,-3.0298,-3.0311,-3.0325,-3.0357,-3.0357,-3.0377,-3.0394,-3.0396,-3.0373,-3.0414,-3.0425,-3.0491,-3.0531,-3.0456,-3.046,-3.0665,-3.067,-3.0674,-3.0725,0,0,0,0,0,0,-3.0222,-3.0239,-3.027,-3.0299,-3.0314,-3.0408,-3.0359,-3.036,-3.0385,-3.0381,-3.0411,-3.0414,-3.0413,-3.0483,-3.0496,-3.0536,-3.0464,-3.0662,-3.0667,-3.0672,-3.072,-3.073,-3.0739,0,0,0,0,0,-3.0217,-3.0282,-3.0272,-3.0286,-3.0354,-3.041,-3.0419,-3.0417,-3.0389,-3.042,-3.0432,-3.0413,-3.0525,-3.0491,-3.0504,-3.0547,-3.0659,-3.0666,-3.0672,-3.0715,-3.0728,-3.0739,0,0,0,0,0,0,-3.0258,-3.0286,-3.0275,-3.0352,-3.0379,-3.0405,-3.0444,-3.0431,-3.0467,-3.0461,-3.0457,-3.0465,-3.0533,-3.0547,-3.0508,-3.0627,-3.0587,-3.0597,-3.0616,-3.0628,-3.0638,-3.0633,-3.0468,0,0,0,0,0,-3.0276,-3.032,-3.0342,-3.0407,-3.0421,-3.0431,-3.0455,-3.0452,-3.048,-3.0491,-3.0507,-3.0535,-3.0576,-3.0603,-3.0642,-3.0722,-3.0727,-3.0758,-3.0768,-3.0776,-3.0784,-3.0826,-3.0839,-3.0696,-3.0696,-3.0696,0,0,-3.0313,-3.0334,-3.0362,-3.0416,-3.0437,-3.0481,-3.0441,-3.049,-3.0523,-3.0498,-3.0561,-3.0575,-3.0605,-3.0678,-3.0711,-3.0691,-3.0825,-3.0784,-3.079,-3.0794,-3.0834,-3.0847,-3.0859,-3.07,-3.07,-3.0699,0,0,-3.0404,-3.0425,-3.0481,-3.0503,-3.0535,-3.054,-3.0554,-3.0582,-3.059,-3.0653,-3.0635,-3.0675,-3.0746,-3.0768,-3.0789,-3.0889,-3.0872,-3.0902,-3.0953,-3.0994,-3.1006,-3.1015,-3.105,-3.1062,-3.091,-3.091,-3.091,0,-3.0446,-3.0513,-3.0511,-3.0562,-3.0586,-3.0567,-3.0623,-3.0644,-3.0687,-3.0704,-3.0682,-3.0771,-3.079,-3.0868,-3.0892,-3.091,-3.0925,-3.0898,-3.1004,-3.1014,-3.1023,-3.1056,-3.1069,-3.0913,-3.0913,-3.0913,-3.0912,0,-3.0563,-3.061,-3.0652,-3.0694,-3.0723,-3.0776,-3.0782,-3.0812,-3.0806,-3.0814,-3.0878,-3.0901,-3.0944,-3.0963,-3.0957,-3.1039,-3.1026,-3.1004,-3.0964,-3.104,-3.1071,-3.1083,-3.0918,-3.0917,-3.0916,-3.0915,0,0,-3.068,-3.0721,-3.0736,-3.0755,-3.0789,-3.0825,-3.0878,-3.092,-3.0945,-3.0976,-3.1019,-3.108,-3.106,-3.1083,-3.1081,-3.1117,-3.1193,-3.1091,-3.1091,-3.1108,-3.1284,-3.1298,-3.1313,-3.1183,-3.1186,-3.1188,-3.128,0,-3.0772,-3.0864,-3.0864,-3.0948,-3.0991,-3.0974,-3.1019,-3.1045,-3.1054,-3.1092,-3.1102,-3.1144,-3.1116,-3.113,-3.1165,-3.1177,-3.1228,-3.117,-3.1222,-3.1224,-3.1214,-3.1329,-3.1345,-3.1431,-3.1293,-3.1295,-3.1296,0,-3.0891,-3.0926,-3.1015,-3.1042,-3.106,-3.1101,-3.114,-3.1176,-3.1205,-3.1209,-3.1236,-3.1227,-3.128,-3.124,-3.1312,-3.1272,-3.1294,-3.1303,-3.1306,-3.131,-3.1264,-3.1334,-3.1459,-3.1471,-3.1315,-3.1314,-3.1312,0,-3.0966,-3.1035,-3.1097,-3.1113,-3.1147,-3.1176,-3.1192,-3.1218,-3.1244,-3.1277,-3.1293,-3.1333,-3.1354,-3.1385,-3.1388,-3.1358,-3.146,-3.142,-3.1464,-3.1464,-3.1485,-3.1483,-3.1613,-3.1502,-3.1502,-3.1502,-3.1501,0,-3.1068,-3.1122,-3.113,-3.1168,-3.1229,-3.1229,-3.1288,-3.1301,-3.1325,-3.1365,-3.1352,-3.139,-3.1392,-3.143,-3.1433,-3.1491,-3.1502,-3.1506,-3.1505,-3.1506,-3.1505,-3.1519,-3.1512,-3.1505,-3.1504,-3.1504,-3.1503,0,-3.116,-3.1168,-3.1234,-3.1261,-3.1269,-3.1313,-3.1335,-3.1371,-3.138,-3.143,-3.1442,-3.1455,-3.1499,-3.1505,-3.1557,-3.1559,-3.1629,-3.1624,-3.1619,-3.1618,-3.1661,-3.1656,-3.1803,-3.1822,-3.17,-3.1701,-3.1702,0,-3.1224,-3.1265,-3.1297,-3.1323,-3.134,-3.1382,-3.1407,-3.1409,-3.1436,-3.1472,-3.1503,-3.1547,-3.1581,-3.1653,-3.1667,-3.1706,-3.17,-3.1749,-3.1706,-3.1705,-3.1699,-3.1696,-3.17,-3.1757,-3.1758,-3.1759,-3.176,0,-3.1335,-3.1337,-3.1375,-3.1414,-3.1445,-3.1476,-3.1505,-3.1527,-3.1532,-3.1563,-3.1609,-3.1636,-3.1689,-3.1732,-3.1771,-3.1786,-3.1774,-3.1774,-3.1786,-3.1786,-3.1781,-3.1783,-3.164,-3.177,-3.1769,-3.1768,-3.1768,-3.1768,-3.1414,-3.145,-3.1478,-3.152,-3.1542,-3.157,-3.1604,-3.1617,-3.1655,-3.1698,-3.1697,-3.1747,-3.1774,-3.1826,-3.1844,-3.1883,-3.1867,-3.1884,-3.1889,-3.1893,-3.1896,-3.1777,-3.189,-3.189,-3.189,-3.1889,-3.1889,0,-3.1524,-3.1541,-3.158,-3.1621,-3.1654,-3.164,-3.1672,-3.17,-3.1744,-3.1771,-3.1805,-3.1857,-3.1899,-3.1916,-3.1957,-3.1984,-3.1979,-3.1995,-3.1992,-3.1995,-3.1909,-3.1894,-3.1998,-3.1998,-3.1998,-3.1998,-3.1998,-3.1998,-3.1585,-3.1644,-3.1649,-3.1719,-3.1736,-3.1784,-3.1803,-3.1828,-3.185,-3.1908,-3.1943,-3.1954,-3.1977,-3.2019,-3.2056,-3.206,-3.2075,-3.2093,-3.2094,-3.2012,-3.2001,-3.1991,-3.1976,-3.2096,-3.2096,-3.2177,-3.2178,-3.2178]},{"header":{"parameterUnit":"m.s-1","parameterCategory":1,"la1":30.2991,"la2":30.254,"lo1":-89.0895,"lo2":-89.0444,"dy":0.0017,"dx":0.0017,"nx":28,"ny":28,"refTime":"2024-04-07T03:00:00:Z","depth":0,"parameterNumber":3,"parameterNumberName":"V-component_of_WINDS"},"data":[0,0,0,0,0,0,0,0,0,0,0,0,0,0,0,0,0,0,0,0,0,0,0,0,0,0,0,0,0,0,0,0,0,0,0,0,0,0,0,0,0,0,0,0,0,0,0,0,0,0,0,0,0,0,0,0,0,0,3.1963,3.1963,0,3.1974,3.1974,3.1974,3.1909,3.1907,3.1905,3.1903,3.1912,3.1914,3.1916,0,0,0,0,0,0,0,0,0,0,0,0,0,3.1886,3.1887,3.1963,3.1963,3.1964,3.1974,3.1974,3.1974,3.1909,3.1907,3.1905,3.1902,3.1911,3.1914,3.1916,0,0,0,0,0,0,0,0,0,0,0,0,0,3.191,3.1888,3.1963,3.1933,3.193,3.1974,3.1974,3.1974,3.191,3.1907,3.1904,3.1901,3.1911,3.1913,3.1916,3.1989,0,0,3.1925,3.1926,0,0,0,0,0,0,0,0,3.1909,3.1913,3.1937,3.1935,3.1932,3.1937,3.1949,3.1979,3.191,3.1917,3.1903,3.19,3.1922,3.1924,3.1932,3.199,3.199,3.1925,3.1927,3.1928,3.1929,0,0,0,0,0,0,0,3.1907,3.1912,3.1967,3.1937,3.1934,3.1918,3.1918,3.1955,3.1935,3.1916,3.1912,3.1914,3.1921,3.1929,3.1932,3.199,3.1925,3.1928,3.193,3.1931,3.2107,3.211,0,0,0,0,0,0,3.191,3.1911,3.1967,3.1968,3.1913,3.1921,3.1922,3.1938,3.1935,3.1931,3.1916,3.1911,3.1926,3.1929,3.1932,3.2016,3.1928,3.1931,3.1933,3.2105,3.2108,3.2111,0,0,0,0,0,0,3.1908,3.1915,3.1967,3.1938,3.1943,3.1925,3.1945,3.194,3.1949,3.1934,3.193,3.1929,3.1924,3.1928,3.1975,3.2015,3.1933,3.1935,3.2101,3.2106,3.211,3.2186,0,0,0,0,0,0,3.1906,3.1915,3.1943,3.1939,3.1945,3.2011,3.1947,3.1942,3.1954,3.1947,3.1945,3.1942,3.1922,3.1972,3.1978,3.2018,3.1937,3.2097,3.2103,3.2108,3.218,3.2192,3.2203,0,0,0,0,0,3.1904,3.1964,3.1945,3.1952,3.198,3.2013,3.2016,3.1992,3.1958,3.1985,3.1976,3.1943,3.2011,3.1977,3.1984,3.2025,3.2095,3.2102,3.2108,3.2174,3.219,3.2203,0,0,0,0,0,0,3.1973,3.1963,3.1942,3.2003,3.2009,3.2002,3.2036,3.2009,3.2025,3.2018,3.1987,3.1987,3.204,3.2037,3.2,3.2095,3.2046,3.2055,3.2095,3.2109,3.2121,3.2119,3.194,0,0,0,0,0,3.1995,3.2024,3.2013,3.2068,3.2073,3.2054,3.2068,3.2048,3.2054,3.2056,3.205,3.2056,3.2079,3.2094,3.2114,3.218,3.2178,3.2212,3.2223,3.2233,3.224,3.2274,3.2288,3.2133,3.2133,3.2133,0,0,3.2041,3.204,3.2059,3.2082,3.2085,3.2114,3.2057,3.209,3.2111,3.2061,3.2105,3.2102,3.2106,3.2163,3.2188,3.2163,3.2283,3.2242,3.225,3.2251,3.2282,3.2297,3.231,3.2138,3.2137,3.2136,0,0,3.214,3.2142,3.2188,3.2192,3.2197,3.2184,3.2196,3.2193,3.2188,3.2233,3.2195,3.222,3.226,3.2264,3.2271,3.2373,3.2342,3.238,3.2441,3.2474,3.2486,3.2497,3.2531,3.2544,3.2388,3.2388,3.2388,0,3.2196,3.224,3.2214,3.225,3.2261,3.2217,3.2262,3.2267,3.2279,3.2287,3.2259,3.2308,3.2308,3.2365,3.2389,3.2398,3.2408,3.2379,3.2487,3.2497,3.2507,3.2539,3.2552,3.2392,3.2392,3.2391,3.2391,0,3.2308,3.2339,3.2374,3.2387,3.2402,3.2442,3.2422,3.244,3.242,3.241,3.2456,3.2455,3.2473,3.2486,3.2466,3.2539,3.2524,3.2492,3.2442,3.2526,3.2556,3.2569,3.2399,3.2397,3.2396,3.2395,0,0,3.2449,3.2447,3.2461,3.2465,3.2469,3.2491,3.253,3.2549,3.2564,3.2574,3.2604,3.2639,3.261,3.2619,3.2599,3.2629,3.2707,3.2593,3.2593,3.2613,3.2787,3.2809,3.2824,3.2688,3.269,3.2692,3.2786,0,3.2544,3.2609,3.2588,3.2654,3.2681,3.2641,3.2674,3.2679,3.2671,3.2693,3.2684,3.2709,3.2669,3.2674,3.2701,3.2692,3.2741,3.2685,3.2715,3.2716,3.2713,3.284,3.2864,3.2952,3.2797,3.2799,3.2801,0,3.2663,3.2678,3.2747,3.2745,3.2756,3.2786,3.2801,3.2823,3.2828,3.282,3.283,3.2805,3.2841,3.2793,3.2842,3.2805,3.2816,3.2813,3.2816,3.2816,3.2762,3.2842,3.298,3.2992,3.2819,3.2818,3.2817,0,3.2757,3.2794,3.284,3.2846,3.2845,3.2867,3.2868,3.287,3.2883,3.2896,3.2904,3.2921,3.2931,3.2945,3.2924,3.2891,3.2976,3.2927,3.297,3.297,3.2988,3.2987,3.3128,3.2998,3.2998,3.2998,3.2998,0,3.2864,3.2908,3.2882,3.291,3.2958,3.2932,3.298,3.2976,3.2978,3.3004,3.2971,3.2996,3.2968,3.2991,3.2976,3.3018,3.3023,3.3017,3.3012,3.3019,3.3019,3.3024,3.3017,3.3001,3.3001,3.3,3.2999,0,3.2976,3.2961,3.3008,3.3004,3.3004,3.3039,3.3035,3.306,3.305,3.3084,3.309,3.3074,3.3099,3.3081,3.3105,3.3095,3.315,3.3138,3.3149,3.3145,3.3188,3.3184,3.3336,3.3354,3.3215,3.3216,3.3217,0,3.3045,3.3077,3.3077,3.3092,3.3095,3.312,3.3133,3.311,3.3124,3.3132,3.3156,3.3178,3.3194,3.3235,3.3226,3.3244,3.323,3.3283,3.3233,3.3239,3.3229,3.3227,3.3229,3.3292,3.3294,3.3295,3.3296,0,3.3168,3.3159,3.3179,3.3196,3.3213,3.3225,3.3235,3.3249,3.3226,3.3244,3.3269,3.3281,3.3306,3.3328,3.3343,3.3343,3.3315,3.3312,3.3323,3.3329,3.3334,3.333,3.3174,3.3308,3.3307,3.3306,3.3305,3.3305,3.3259,3.3285,3.3289,3.3312,3.3318,3.3328,3.3351,3.3344,3.3365,3.3384,3.3369,3.3398,3.3402,3.3419,3.3423,3.3445,3.3423,3.3439,3.3443,3.3447,3.3452,3.3332,3.3448,3.3448,3.3447,3.3447,3.3447,0,3.3379,3.3379,3.3401,3.3416,3.3434,3.3408,3.3418,3.3434,3.3461,3.3467,3.3484,3.3512,3.3533,3.3526,3.3544,3.3563,3.3551,3.3569,3.3566,3.3566,3.3471,3.3459,3.3578,3.3578,3.3578,3.3578,3.3578,3.3578,3.3443,3.3486,3.3478,3.3523,3.3523,3.3552,3.356,3.3568,3.3573,3.3606,3.3624,3.3619,3.362,3.3638,3.3656,3.3653,3.3661,3.3683,3.3675,3.3586,3.3573,3.3561,3.3549,3.3685,3.3685,3.3768,3.3769,3.377]}]]